"Pseudo-MPEC" for ON01336

Created 2025 May 20 3:31:05 UT using Find_Orb

Click here for an explanation of pseudo-MPECs

 
 Astrometry: 
     ON01336* C2025 05 01.69553214 28 32.963+02 57 59.87   ~523H 22.42gWNEOCPO18
     ON01336  C2025 05 01.73025414 28 32.580+02 58 02.13   ~523H 21.99rWNEOCPO18
     ON01336  C2025 05 01.73148114 28 32.562+02 58 02.07   ~523H 21.93rWNEOCPO18

Station data:
(O18) WFST, Lenghu  (N38.607601 E93.895220).

Orbital elements:  ON01336
   Perihelion 2017 Mar 10.56603 +/- 3883 TT = 13:35:04 (JD 2457823.06603)
Epoch 2025 May  2.0 TT = JDT 2460797.5   Sa: 0.0024              AutoNEOCP
M  10.51324634 +/- 60               (J2000 ecliptic)
n   0.00353453 +/-                  Peri.  292.11796 +/- 100
a  42.6822898 +/-                   Node   173.32690 +/- 41
e   0.8511959 +/- 0.226             Incl.   23.26960 +/- 54
P 278.85059                H  9.75  G  0.15   U 10.4  SR
q 6.35129624 +/- 6.25    Q 79.0132833 +/- 1045
From 3 observations 2025 May 1 (51.8 min); mean residual 0".04
Residuals in arcseconds: 
250501 O18  .00   .00     250501 O18  .04+  .07+    250501 O18  .03-  .07-    

Ephemerides (geocentric):
Date (UTC) HH   RA             Dec           delta  r     elong  mag " sig PA
---- --------  ------------   ------------  ------ ------ -----  --- --------
2025 05 20 04  14 25 18.473   +03 13 37.70  16.185 17.063 149.3 22.2 3573  57
2025 05 20 05  14 25 18.061   +03 13 39.26  16.186 17.063 149.3 22.2 3589  57
2025 05 20 06  14 25 17.649   +03 13 40.83  16.186 17.063 149.2 22.2 3605  57
2025 05 20 07  14 25 17.236   +03 13 42.40  16.186 17.063 149.2 22.2 3622  57
2025 05 20 08  14 25 16.825   +03 13 43.96  16.187 17.064 149.2 22.2 3638  57
2025 05 20 09  14 25 16.413   +03 13 45.52  16.187 17.064 149.1 22.2 3654  57
2025 05 20 10  14 25 16.001   +03 13 47.07  16.188 17.064 149.1 22.2 3670  57
2025 05 20 11  14 25 15.590   +03 13 48.63  16.188 17.064 149.1 22.2 3686  57
2025 05 20 12  14 25 15.179   +03 13 50.18  16.189 17.064 149.0 22.2 3703  57
2025 05 20 13  14 25 14.768   +03 13 51.73  16.189 17.064 149.0 22.2 3719  57
2025 05 20 14  14 25 14.357   +03 13 53.28  16.190 17.065 149.0 22.2 3736  57
2025 05 20 15  14 25 13.946   +03 13 54.82  16.190 17.065 148.9 22.2 3752  57
2025 05 20 16  14 25 13.535   +03 13 56.36  16.191 17.065 148.9 22.2 3769  57
2025 05 20 17  14 25 13.125   +03 13 57.90  16.191 17.065 148.8 22.2 3786  57
2025 05 20 18  14 25 12.715   +03 13 59.44  16.191 17.065 148.8 22.2 3802  57
2025 05 20 19  14 25 12.304   +03 14 00.97  16.192 17.065 148.8 22.2 3819  57
2025 05 20 20  14 25 11.895   +03 14 02.50  16.192 17.066 148.7 22.2 3836  57
2025 05 20 21  14 25 11.485   +03 14 04.03  16.193 17.066 148.7 22.2 3853  57
2025 05 20 22  14 25 11.075   +03 14 05.55  16.193 17.066 148.7 22.2 3870  57
2025 05 20 23  14 25 10.666   +03 14 07.08  16.194 17.066 148.6 22.2 3887  57
2025 05 21 00  14 25 10.256   +03 14 08.60  16.194 17.066 148.6 22.2 3904  57
2025 05 21 01  14 25 09.847   +03 14 10.12  16.195 17.066 148.6 22.2 3921  57
2025 05 21 02  14 25 09.438   +03 14 11.63  16.195 17.067 148.5 22.2 3938  57
2025 05 21 03  14 25 09.030   +03 14 13.14  16.196 17.067 148.5 22.2 3956  56
2025 05 21 04  14 25 08.621   +03 14 14.65  16.196 17.067 148.5 22.2 3973  56
2025 05 21 05  14 25 08.213   +03 14 16.16  16.197 17.067 148.4 22.2 3990  56
2025 05 21 06  14 25 07.804   +03 14 17.67  16.197 17.067 148.4 22.2 4008  56
2025 05 21 07  14 25 07.396   +03 14 19.17  16.198 17.067 148.4 22.2 4025  56
2025 05 21 08  14 25 06.988   +03 14 20.67  16.198 17.068 148.3 22.2 4043  56
2025 05 21 09  14 25 06.581   +03 14 22.16  16.198 17.068 148.3 22.2 4061  56
2025 05 21 10  14 25 06.173   +03 14 23.66  16.199 17.068 148.3 22.2 4078  56
2025 05 21 11  14 25 05.766   +03 14 25.15  16.199 17.068 148.2 22.2 4096  56
2025 05 21 12  14 25 05.358   +03 14 26.64  16.200 17.068 148.2 22.2 4114  56
2025 05 21 13  14 25 04.951   +03 14 28.13  16.200 17.068 148.2 22.2 4132  56
2025 05 21 14  14 25 04.544   +03 14 29.61  16.201 17.069 148.1 22.2 4150  56
2025 05 21 15  14 25 04.138   +03 14 31.09  16.201 17.069 148.1 22.2 4168  56
2025 05 21 16  14 25 03.731   +03 14 32.57  16.202 17.069 148.0 22.2 4186  56
2025 05 21 17  14 25 03.325   +03 14 34.05  16.202 17.069 148.0 22.2 4204  56
2025 05 21 18  14 25 02.918   +03 14 35.52  16.203 17.069 148.0 22.2 4222  56
2025 05 21 19  14 25 02.512   +03 14 36.99  16.203 17.069 147.9 22.2 4241  56
2025 05 21 20  14 25 02.107   +03 14 38.46  16.204 17.070 147.9 22.2 4259  56
2025 05 21 21  14 25 01.701   +03 14 39.93  16.204 17.070 147.9 22.2 4278  56
2025 05 21 22  14 25 01.295   +03 14 41.39  16.205 17.070 147.8 22.2 4296  56
2025 05 21 23  14 25 00.890   +03 14 42.85  16.205 17.070 147.8 22.2 4315  56
2025 05 22 00  14 25 00.485   +03 14 44.31  16.205 17.070 147.8 22.2 4333  56
2025 05 22 01  14 25 00.080   +03 14 45.76  16.206 17.070 147.7 22.2 4352  56
2025 05 22 02  14 24 59.675   +03 14 47.22  16.206 17.071 147.7 22.2 4371  56
2025 05 22 03  14 24 59.270   +03 14 48.67  16.207 17.071 147.7 22.2 4390  56